START_TIME,STEP,MOV.,M29,t_acc.,H22,t_acc.,H26,t_acc.,H30,t_acc.
1979-03-11 00:00:29.440 ,2,1,0.,24.0,0.,24.0,0.,24.0,0.,24.0
1979-03-11 00:00:53.440 ,6,1,0.,24.0,0.,24.0,0.,24.0,0.,24.0
1979-03-11 00:01:17.440 ,5,1,0.,24.0,0.,24.0,0.,24.0,0.,24.0
1979-03-11 00:01:41.440 ,1,1,0.,24.0,0.,24.0,0.,24.0,0.,24.0
1979-03-11 00:02:05.440 ,2,1,0.,24.0,0.,24.0,0.,24.0,0.,24.0
1979-03-11 00:02:29.440 ,6,1,0.,24.0,0.,24.0,0.,24.0,0.,24.0
1979-03-11 00:02:53.440 ,5,1,0.,24.0,0.,24.0,0.,24.0,0.,24.0
1979-03-11 00:03:17.440 ,1,1,0.,24.0,0.,24.0,0.,24.0,0.,24.0
1979-03-11 00:03:41.440 ,2,1,0.,24.0,0.,24.0,0.,24.0,0.,24.0
1979-03-11 00:04:05.440 ,6,1,0.,24.0,0.,24.0,0.,24.0,0.,24.0
1979-03-11 00:04:29.430 ,5,1,0.,24.0,0.,24.0,0.,24.0,0.,24.0
1979-03-11 00:04:53.430 ,1,1,0.,24.0,0.,24.0,0.,24.0,0.,24.0
1979-03-11 00:05:17.430 ,2,1,0.,24.0,0.,24.0,0.,24.0,0.,24.0
1979-03-11 00:05:41.430 ,6,1,0.,24.0,0.,24.0,0.,24.0,0.,24.0
1979-03-11 00:06:05.430 ,5,1,0.,24.0,0.,24.0,0.,24.0,0.,24.0
1979-03-11 00:06:29.430 ,1,1,0.,24.0,0.,24.0,0.,24.0,0.,24.0
1979-03-11 00:06:53.430 ,2,1,0.,24.0,0.,24.0,0.,24.0,0.,24.0
1979-03-11 00:07:17.430 ,6,1,0.,24.0,0.,24.0,0.,24.0,0.,24.0
1979-03-11 00:07:41.430 ,5,1,0.,24.0,0.,24.0,0.,24.0,0.,24.0
1979-03-11 00:08:05.430 ,1,1,0.,24.0,0.,24.0,0.,24.0,0.,24.0
1979-03-11 00:08:29.430 ,2,1,0.,24.0,0.,24.0,0.,24.0,0.,24.0
1979-03-11 00:08:53.430 ,6,1,0.,24.0,0.,24.0,0.,24.0,0.,24.0
1979-03-11 00:09:17.430 ,5,1,0.,24.0,0.,24.0,0.,24.0,0.,24.0
1979-03-11 00:09:41.430 ,1,1,0.,24.0,0.,24.0,0.,24.0,0.,24.0
1979-03-11 00:10:05.430 ,2,1,0.,24.0,0.,24.0,0.,24.0,0.,24.0
1979-03-11 00:10:29.430 ,6,1,0.,24.0,0.,24.0,0.,24.0,0.,24.0
1979-03-11 00:10:53.430 ,5,1,0.,24.0,0.,24.0,0.,24.0,0.,24.0
1979-03-11 00:11:17.430 ,1,1,0.,24.0,0.,24.0,0.,24.0,0.,24.0
1979-03-11 00:11:41.430 ,2,1,0.,24.0,0.,24.0,0.,24.0,0.,24.0
1979-03-11 00:12:05.430 ,6,1,0.,24.0,0.,24.0,0.,24.0,0.,24.0
1979-03-11 00:12:29.430 ,5,1,0.,24.0,0.,24.0,0.,24.0,0.,24.0
1979-03-11 00:12:53.430 ,1,1,0.,24.0,0.,24.0,0.,24.0,0.,24.0
1979-03-11 00:13:17.430 ,2,1,0.,24.0,0.,24.0,0.,24.0,0.,24.0
1979-03-11 00:13:41.430 ,6,1,0.,24.0,0.,24.0,0.,24.0,0.,24.0
1979-03-11 00:14:05.430 ,5,1,0.,24.0,0.,24.0,0.,24.0,0.,24.0
1979-03-11 00:14:29.430 ,1,1,0.,24.0,0.,24.0,0.,24.0,0.,24.0
1979-03-11 00:14:53.430 ,2,1,0.,24.0,0.,24.0,0.,24.0,0.,24.0
1979-03-11 00:15:17.430 ,6,1,0.,24.0,0.,24.0,0.,24.0,0.,24.0
1979-03-11 00:15:41.430 ,5,1,0.,24.0,0.,24.0,0.,24.0,0.,24.0
1979-03-11 00:16:05.430 ,1,1,0.,24.0,0.,24.0,0.,24.0,0.,24.0
1979-03-11 00:16:29.430 ,2,1,0.,24.0,0.,24.0,0.,24.0,0.,24.0
1979-03-11 00:16:53.430 ,6,1,0.,24.0,0.,24.0,0.,24.0,0.,24.0
1979-03-11 00:17:17.440 ,5,1,0.,24.0,0.,24.0,0.,24.0,0.,24.0
1979-03-11 00:17:41.440 ,1,1,0.,24.0,0.,24.0,0.,24.0,0.,24.0
1979-03-11 00:18:05.440 ,2,1,0.,24.0,0.,24.0,0.,24.0,0.,24.0
1979-03-11 00:18:29.440 ,6,1,0.,24.0,0.,24.0,0.,24.0,0.,24.0
1979-03-11 00:18:53.440 ,5,1,0.,24.0,0.,24.0,0.,24.0,0.,24.0
1979-03-11 00:19:17.440 ,1,1,0.,24.0,0.,24.0,0.,24.0,0.,24.0
1979-03-11 00:19:41.440 ,2,1,0.,24.0,0.,24.0,0.,24.0,0.,24.0
1979-03-11 00:20:05.440 ,6,1,0.,24.0,0.,24.0,0.,24.0,0.,24.0
1979-03-11 00:20:29.440 ,5,1,0.,24.0,0.,24.0,0.,24.0,0.,24.0
1979-03-11 00:20:53.440 ,1,1,0.,24.0,0.,24.0,0.,24.0,0.,24.0
1979-03-11 00:21:17.440 ,2,1,0.,24.0,0.,24.0,0.,24.0,0.,24.0
1979-03-11 00:21:41.440 ,6,1,0.,24.0,0.,24.0,0.,24.0,0.,24.0
1979-03-11 00:22:05.440 ,5,1,0.,24.0,0.,24.0,0.,24.0,0.,24.0
1979-03-11 00:22:29.440 ,1,1,0.,24.0,0.,24.0,0.,24.0,0.,24.0
1979-03-11 00:22:53.440 ,2,1,0.,24.0,0.,24.0,0.,24.0,0.,24.0
1979-03-11 00:23:17.440 ,6,1,0.,24.0,0.,24.0,0.,24.0,0.,24.0
1979-03-11 00:23:41.440 ,5,1,0.,24.0,0.,24.0,0.,24.0,0.,24.0
1979-03-11 00:24:05.440 ,1,1,0.,24.0,0.,24.0,0.,24.0,0.,24.0
1979-03-11 00:24:29.440 ,2,1,0.,24.0,0.,24.0,0.,24.0,0.,24.0
1979-03-11 00:24:53.440 ,6,1,0.,24.0,0.,24.0,0.,24.0,0.,24.0
1979-03-11 00:25:17.440 ,5,1,0.,24.0,0.,24.0,0.,24.0,0.,24.0
1979-03-11 00:25:41.440 ,1,1,0.,24.0,0.,24.0,0.,24.0,0.,24.0
1979-03-11 00:26:05.440 ,2,1,0.,24.0,0.,24.0,0.,24.0,0.,24.0
1979-03-11 00:26:29.440 ,6,1,0.,24.0,0.,24.0,0.,24.0,0.,24.0
1979-03-11 00:26:53.440 ,5,1,0.,24.0,0.,24.0,0.,24.0,0.,24.0
1979-03-11 00:27:17.440 ,1,1,0.,24.0,0.,24.0,0.,24.0,0.,24.0
1979-03-11 00:27:41.440 ,2,1,0.,24.0,0.,24.0,0.,24.0,0.,24.0
1979-03-11 00:28:05.440 ,6,1,0.,24.0,0.,24.0,0.,24.0,0.,24.0
1979-03-11 00:28:29.440 ,5,1,0.,24.0,0.,24.0,0.,24.0,0.,24.0
1979-03-11 00:28:53.440 ,1,1,0.,24.0,0.,24.0,0.,24.0,0.,24.0
1979-03-11 00:29:17.440 ,2,1,0.,24.0,0.,24.0,0.,24.0,0.,24.0
1979-03-11 00:29:41.440 ,6,1,0.,24.0,0.,24.0,0.,24.0,0.,24.0
1979-03-11 00:30:05.440 ,5,1,0.,24.0,0.,24.0,0.,24.0,0.,24.0
1979-03-11 00:30:29.440 ,1,1,0.,24.0,0.,24.0,0.,24.0,0.,24.0
1979-03-11 00:30:53.440 ,2,1,0.,24.0,0.,24.0,0.,24.0,0.,24.0
1979-03-11 00:31:17.440 ,6,1,0.,24.0,0.,24.0,0.,24.0,0.,24.0
1979-03-11 00:31:41.440 ,5,1,0.,24.0,0.,24.0,0.,24.0,0.,24.0
1979-03-11 00:32:05.440 ,1,1,0.,24.0,0.,24.0,0.,24.0,0.,24.0
1979-03-11 00:32:29.440 ,2,1,0.,24.0,0.,24.0,0.,24.0,0.,24.0
1979-03-11 00:32:53.440 ,6,1,0.,24.0,0.,24.0,0.,24.0,0.,24.0
1979-03-11 00:33:17.440 ,5,1,0.,24.0,0.,24.0,0.,24.0,0.,24.0
1979-03-11 00:33:41.440 ,1,1,0.,24.0,0.,24.0,0.,24.0,0.,24.0
1979-03-11 00:34:05.440 ,2,1,0.,24.0,0.,24.0,0.,24.0,0.,24.0
1979-03-11 00:34:29.440 ,6,1,0.,24.0,0.,24.0,0.,24.0,0.,24.0
1979-03-11 00:34:53.440 ,5,1,0.,24.0,0.,24.0,0.,24.0,0.,24.0
1979-03-11 00:35:17.440 ,1,1,0.,24.0,0.,24.0,0.,24.0,0.,24.0
1979-03-11 00:35:41.440 ,2,1,0.,24.0,0.,24.0,0.,24.0,0.,24.0
1979-03-11 00:36:05.440 ,6,1,0.,24.0,0.,24.0,0.,24.0,0.,24.0
1979-03-11 00:36:29.440 ,5,1,0.,24.0,0.,24.0,0.,24.0,0.,24.0
1979-03-11 00:36:53.440 ,1,1,0.,24.0,0.,24.0,0.,24.0,0.,24.0
1979-03-11 00:37:17.440 ,2,1,0.,24.0,0.,24.0,0.,24.0,0.,24.0
1979-03-11 00:37:41.440 ,6,1,0.,24.0,0.,24.0,0.,24.0,0.,24.0
1979-03-11 00:38:05.440 ,5,1,0.,24.0,0.,24.0,0.,24.0,0.,24.0
1979-03-11 00:38:29.440 ,1,1,0.,24.0,0.,24.0,0.,24.0,0.,24.0
1979-03-11 00:38:53.440 ,2,1,0.,24.0,0.,24.0,0.,24.0,0.,24.0
1979-03-11 00:39:17.440 ,5,1,0.,24.0,0.,24.0,0.,24.0,0.,24.0
1979-03-11 00:39:41.440 ,6,1,0.,24.0,0.,24.0,0.,24.0,0.,24.0
1979-03-11 00:40:05.440 ,7,1,0.,24.0,0.,24.0,0.,24.0,0.,24.0
1979-03-11 00:40:29.440 ,7,1,0.,24.0,0.,24.0,0.,24.0,0.,24.0
1979-03-11 00:40:53.440 ,6,1,0.,24.0,0.,24.0,0.,24.0,0.,24.0
1979-03-11 00:41:17.440 ,5,1,0.,24.0,0.,24.0,0.,24.0,0.,24.0
1979-03-11 00:41:41.440 ,4,1,0.,24.0,0.,24.0,0.,24.0,0.,24.0
1979-03-11 00:42:05.440 ,3,1,0.,24.0,0.,24.0,0.,24.0,0.,24.0
1979-03-11 00:42:29.440 ,2,1,0.,24.0,0.,24.0,0.,24.0,0.,24.0
1979-03-11 00:42:53.440 ,1,1,0.,24.0,0.,24.0,0.,24.0,0.,24.0
1979-03-11 00:43:17.440 ,0,1,0.,24.0,0.,24.0,0.,24.0,0.,24.0
1979-03-11 00:43:41.440 ,0,1,0.,24.0,0.,24.0,0.,24.0,0.,24.0
1979-03-11 00:44:05.440 ,1,1,0.,24.0,0.,24.0,0.,24.0,0.,24.0
1979-03-11 00:44:29.440 ,2,1,0.,24.0,0.,24.0,0.,24.0,0.,24.0
1979-03-11 00:44:53.440 ,3,1,0.,24.0,0.,24.0,0.,24.0,0.,24.0
1979-03-11 00:45:17.440 ,4,1,0.,24.0,0.,24.0,0.,24.0,0.,24.0
1979-03-11 00:45:41.440 ,5,1,0.,24.0,0.,24.0,0.,24.0,0.,24.0
1979-03-11 00:46:05.440 ,6,1,0.,24.0,0.,24.0,0.,24.0,0.,24.0
1979-03-11 00:46:29.440 ,7,1,0.,24.0,0.,24.0,0.,24.0,0.,24.0
1979-03-11 00:46:53.440 ,7,1,0.,24.0,0.,24.0,0.,24.0,0.,24.0
1979-03-11 00:47:17.440 ,6,1,0.,24.0,0.,24.0,0.,24.0,0.,24.0
1979-03-11 00:47:41.440 ,5,1,0.,24.0,0.,24.0,0.,24.0,0.,24.0
1979-03-11 00:48:05.440 ,4,1,0.,24.0,0.,24.0,0.,24.0,0.,24.0
1979-03-11 00:48:29.440 ,3,1,0.,24.0,0.,24.0,0.,24.0,0.,24.0
1979-03-11 00:48:53.440 ,2,1,0.,24.0,0.,24.0,0.,24.0,0.,24.0
1979-03-11 00:49:17.440 ,1,1,0.,24.0,0.,24.0,0.,24.0,0.,24.0
1979-03-11 00:49:41.440 ,0,1,0.,24.0,0.,24.0,0.,24.0,0.,24.0
1979-03-11 00:50:05.440 ,0,1,0.,24.0,0.,24.0,0.,24.0,0.,24.0
1979-03-11 00:50:29.440 ,1,1,0.,24.0,0.,24.0,0.,24.0,0.,24.0
1979-03-11 00:50:53.440 ,2,1,0.,24.0,0.,24.0,0.,24.0,0.,24.0
1979-03-11 00:51:17.440 ,3,1,0.,24.0,0.,24.0,0.,24.0,0.,24.0
1979-03-11 00:51:41.440 ,4,1,0.,24.0,0.,24.0,0.,24.0,0.,24.0
1979-03-11 00:52:05.440 ,5,1,0.,24.0,0.,24.0,0.,24.0,0.,24.0
1979-03-11 00:52:29.440 ,6,1,0.,24.0,0.,24.0,0.,24.0,0.,24.0
1979-03-11 00:52:53.440 ,7,1,0.,24.0,0.,24.0,0.,24.0,0.,24.0
1979-03-11 00:53:17.440 ,7,1,0.,24.0,0.,24.0,0.,24.0,0.,24.0
1979-03-11 00:53:41.440 ,6,1,0.,24.0,0.,24.0,0.,24.0,0.,24.0
1979-03-11 00:54:05.440 ,5,1,0.,24.0,0.,24.0,0.,24.0,0.,24.0
1979-03-11 00:54:29.440 ,4,1,0.,24.0,0.,24.0,0.,24.0,0.,24.0
1979-03-11 00:54:53.440 ,3,1,0.,24.0,0.,24.0,0.,24.0,0.,24.0
1979-03-11 00:55:17.440 ,2,1,0.,24.0,0.,24.0,0.,24.0,0.,24.0
1979-03-11 00:55:41.440 ,1,1,0.,24.0,0.,24.0,0.,24.0,0.,24.0
1979-03-11 00:56:05.440 ,0,1,0.,24.0,0.,24.0,0.,24.0,0.,24.0
1979-03-11 00:56:29.440 ,0,1,0.,24.0,0.,24.0,0.,24.0,0.,24.0
1979-03-11 00:56:53.440 ,1,1,0.,24.0,0.,24.0,0.,24.0,0.,24.0
1979-03-11 00:57:17.440 ,2,1,0.,24.0,0.,24.0,0.,24.0,0.,24.0
1979-03-11 00:57:41.440 ,3,1,0.,24.0,0.,24.0,0.,24.0,0.,24.0
1979-03-11 00:58:05.440 ,4,1,0.,24.0,0.,24.0,0.,24.0,0.,24.0
1979-03-11 00:58:29.440 ,5,1,0.,24.0,0.,24.0,0.,24.0,0.,24.0
1979-03-11 00:58:53.440 ,6,1,0.,24.0,0.,24.0,0.,24.0,0.,24.0
1979-03-11 00:59:17.440 ,7,1,0.,24.0,0.,24.0,0.,24.0,0.,24.0
1979-03-11 00:59:41.440 ,7,1,0.,24.0,0.,24.0,0.,24.0,0.,24.0
1979-03-11 01:00:05.440 ,6,1,0.,24.0,0.,24.0,0.,24.0,0.,24.0
1979-03-11 01:00:29.440 ,5,1,0.,24.0,0.,24.0,0.,24.0,0.,24.0
1979-03-11 01:00:53.440 ,4,1,0.,24.0,0.,24.0,0.,24.0,0.,24.0
1979-03-11 01:01:17.440 ,3,1,0.,24.0,0.,24.0,0.,24.0,0.,24.0
1979-03-11 01:01:41.440 ,2,1,0.,24.0,0.,24.0,0.,24.0,0.,24.0
1979-03-11 01:02:05.440 ,1,1,0.,24.0,0.,24.0,0.,24.0,0.,24.0
1979-03-11 01:02:29.440 ,0,1,0.,24.0,0.,24.0,0.,24.0,0.,24.0
1979-03-11 01:02:53.440 ,0,1,0.,24.0,0.,24.0,0.,24.0,0.,24.0
1979-03-11 01:03:17.440 ,1,1,0.,24.0,0.,24.0,0.,24.0,0.,24.0
1979-03-11 01:03:41.440 ,2,1,0.,24.0,0.,24.0,0.,24.0,0.,24.0
1979-03-11 01:04:05.440 ,3,1,0.,24.0,0.,24.0,0.,24.0,0.,24.0
1979-03-11 01:04:29.440 ,4,1,0.,24.0,0.,24.0,0.,24.0,0.,24.0
1979-03-11 01:04:53.440 ,5,1,0.,24.0,0.,24.0,0.,24.0,0.,24.0
1979-03-11 01:05:17.440 ,6,1,0.,24.0,0.,24.0,0.,24.0,0.,24.0
1979-03-11 01:05:41.440 ,7,1,0.,24.0,0.,24.0,0.,24.0,0.,24.0
1979-03-11 01:06:05.440 ,7,1,0.,24.0,0.,24.0,0.,24.0,0.,24.0
1979-03-11 01:06:29.440 ,6,1,0.,24.0,0.,24.0,0.,24.0,0.,24.0
1979-03-11 01:06:53.440 ,5,1,0.,24.0,0.,24.0,0.,24.0,0.,24.0
1979-03-11 01:07:17.440 ,4,1,0.,24.0,0.,24.0,0.,24.0,0.,24.0
1979-03-11 01:07:41.440 ,3,1,0.,24.0,0.,24.0,0.,24.0,0.,24.0
1979-03-11 01:08:05.440 ,2,1,0.,24.0,0.,24.0,0.,24.0,0.,24.0
1979-03-11 01:08:29.440 ,1,1,0.,24.0,0.,24.0,0.,24.0,0.,24.0
1979-03-11 01:08:53.440 ,0,1,0.,24.0,0.,24.0,0.,24.0,0.,24.0
1979-03-11 01:09:17.440 ,0,1,0.,24.0,0.,24.0,0.,24.0,0.,24.0
1979-03-11 01:09:41.440 ,1,1,0.,24.0,0.,24.0,0.,24.0,0.,24.0
1979-03-11 01:10:05.440 ,2,1,0.,24.0,0.,24.0,0.,24.0,0.,24.0
1979-03-11 01:10:29.440 ,3,1,0.,24.0,0.,24.0,0.,24.0,0.,24.0
1979-03-11 01:10:53.440 ,4,1,0.,24.0,0.,24.0,0.,24.0,0.,24.0
1979-03-11 01:11:17.440 ,5,1,0.,24.0,0.,24.0,0.,24.0,0.,24.0
1979-03-11 01:11:41.440 ,6,1,0.,24.0,0.,24.0,0.,24.0,0.,24.0
1979-03-11 01:12:05.440 ,7,1,0.,24.0,0.,24.0,0.,24.0,0.,24.0
1979-03-11 01:12:29.440 ,7,1,0.,24.0,0.,24.0,0.,24.0,0.,24.0
1979-03-11 01:12:53.440 ,6,1,0.,24.0,0.,24.0,0.,24.0,0.,24.0
1979-03-11 01:13:17.440 ,5,1,0.,24.0,0.,24.0,0.,24.0,0.,24.0
1979-03-11 01:13:41.440 ,4,1,0.,24.0,0.,24.0,0.,24.0,0.,24.0
1979-03-11 01:14:05.440 ,3,1,0.,24.0,0.,24.0,0.,24.0,0.,24.0
1979-03-11 01:14:29.440 ,2,1,0.,24.0,0.,24.0,0.,24.0,0.,24.0
1979-03-11 01:14:53.440 ,1,1,0.,24.0,0.,24.0,0.,24.0,0.,24.0
1979-03-11 01:15:17.440 ,0,1,0.,24.0,0.,24.0,0.,24.0,0.,24.0
1979-03-11 01:15:41.440 ,0,1,0.,24.0,0.,24.0,0.,24.0,0.,24.0
1979-03-11 01:16:05.440 ,1,1,0.,24.0,0.,24.0,0.,24.0,0.,24.0
1979-03-11 01:16:29.440 ,2,1,0.,24.0,0.,24.0,0.,24.0,0.,24.0
1979-03-11 01:16:53.440 ,3,1,0.,24.0,0.,24.0,0.,24.0,0.,24.0
1979-03-11 01:17:17.440 ,4,1,0.,24.0,0.,24.0,0.,24.0,0.,24.0
1979-03-11 01:17:41.440 ,5,1,0.,24.0,0.,24.0,0.,24.0,0.,24.0
1979-03-11 01:18:05.440 ,6,1,0.,24.0,0.,24.0,0.,24.0,0.,24.0
1979-03-11 01:18:29.440 ,7,1,0.,24.0,0.,24.0,0.,24.0,0.,24.0
1979-03-11 01:18:53.440 ,7,1,0.,24.0,0.,24.0,0.,24.0,0.,24.0
1979-03-11 01:19:17.440 ,6,1,0.,24.0,0.,24.0,0.,24.0,0.,24.0
1979-03-11 01:19:41.440 ,5,1,0.,24.0,0.,24.0,0.,24.0,0.,24.0
1979-03-11 01:20:05.440 ,4,1,0.,24.0,0.,24.0,0.,24.0,0.,24.0
1979-03-11 01:20:29.440 ,3,1,0.,24.0,0.,24.0,0.,24.0,0.,24.0
1979-03-11 01:20:53.440 ,2,1,0.,24.0,0.,24.0,0.,24.0,0.,24.0
1979-03-11 01:21:17.440 ,1,1,0.,24.0,0.,24.0,0.,24.0,0.,24.0
1979-03-11 01:21:41.440 ,0,1,0.,24.0,0.,24.0,0.,24.0,0.,24.0
1979-03-11 01:22:05.440 ,0,1,0.,24.0,0.,24.0,0.,24.0,0.,24.0
1979-03-11 01:22:29.440 ,1,1,0.,24.0,0.,24.0,0.,24.0,0.,24.0
1979-03-11 01:22:53.440 ,2,1,0.,24.0,0.,24.0,0.,24.0,0.,24.0
1979-03-11 01:23:17.440 ,3,1,0.,24.0,0.,24.0,0.,24.0,0.,24.0
1979-03-11 01:23:41.440 ,4,1,0.,24.0,0.,24.0,0.,24.0,0.,24.0
1979-03-11 01:24:05.440 ,5,1,0.,24.0,0.,24.0,0.,24.0,0.,24.0
1979-03-11 01:24:29.440 ,6,1,0.,24.0,0.,24.0,0.,24.0,0.,24.0
1979-03-11 01:24:53.440 ,7,1,0.,24.0,0.,24.0,0.,24.0,0.,24.0
1979-03-11 01:25:17.440 ,7,1,0.,24.0,0.,24.0,0.,24.0,0.,24.0
1979-03-11 01:25:41.440 ,6,1,0.,24.0,0.,24.0,0.,24.0,0.,24.0
1979-03-11 01:26:05.440 ,5,1,0.,24.0,0.,24.0,0.,24.0,0.,24.0
1979-03-11 01:26:29.440 ,4,1,0.,24.0,0.,24.0,0.,24.0,0.,24.0
1979-03-11 01:26:53.440 ,3,1,0.,24.0,0.,24.0,0.,24.0,0.,24.0
1979-03-11 01:27:17.440 ,2,1,0.,24.0,0.,24.0,0.,24.0,0.,24.0
1979-03-11 01:27:41.440 ,1,1,0.,24.0,0.,24.0,0.,24.0,0.,24.0
1979-03-11 01:28:05.440 ,0,1,0.,24.0,0.,24.0,0.,24.0,0.,24.0
1979-03-11 01:28:29.440 ,0,1,0.,24.0,0.,24.0,0.,24.0,0.,24.0
1979-03-11 01:28:53.440 ,1,1,0.,24.0,0.,24.0,0.,24.0,0.,24.0
1979-03-11 01:29:17.440 ,2,1,0.,24.0,0.,24.0,0.,24.0,0.,24.0
1979-03-11 01:29:41.440 ,3,1,0.,24.0,0.,24.0,0.,24.0,0.,24.0
1979-03-11 01:30:05.440 ,4,1,0.,24.0,0.,24.0,0.,24.0,0.,24.0
1979-03-11 01:30:29.440 ,5,1,0.,24.0,0.,24.0,0.,24.0,0.,24.0
1979-03-11 01:30:53.440 ,6,1,0.,24.0,0.,24.0,0.,24.0,0.,24.0
1979-03-11 01:31:17.440 ,7,1,0.,24.0,0.,24.0,0.,24.0,0.,24.0
1979-03-11 01:31:41.440 ,7,1,0.,24.0,0.,24.0,0.,24.0,0.,24.0
1979-03-11 01:32:05.440 ,6,1,0.,24.0,0.,24.0,0.,24.0,0.,24.0
1979-03-11 01:32:29.440 ,5,1,0.,24.0,0.,24.0,0.,24.0,0.,24.0
1979-03-11 01:32:53.440 ,4,1,0.,24.0,0.,24.0,0.,24.0,0.,24.0
1979-03-11 01:33:17.440 ,3,1,0.,24.0,0.,24.0,0.,24.0,0.,24.0
1979-03-11 01:33:41.440 ,2,1,0.,24.0,0.,24.0,0.,24.0,0.,24.0
1979-03-11 01:34:05.440 ,1,1,0.,24.0,0.,24.0,0.,24.0,0.,24.0
1979-03-11 01:34:29.440 ,0,1,0.,24.0,0.,24.0,0.,24.0,0.,24.0
1979-03-11 01:34:53.440 ,0,1,0.,24.0,0.,24.0,0.,24.0,0.,24.0
1979-03-11 01:35:17.440 ,1,1,0.,24.0,0.,24.0,0.,24.0,0.,24.0
1979-03-11 01:35:41.440 ,2,1,0.,24.0,0.,24.0,0.,24.0,0.,24.0
1979-03-11 01:36:05.440 ,3,1,0.,24.0,0.,24.0,0.,24.0,0.,24.0
1979-03-11 01:36:29.440 ,4,1,0.,24.0,0.,24.0,0.,24.0,0.,24.0
1979-03-11 01:36:53.440 ,5,1,0.,24.0,0.,24.0,0.,24.0,0.,24.0
1979-03-11 01:37:17.440 ,6,1,0.,24.0,0.,24.0,0.,24.0,0.,24.0
1979-03-11 01:37:41.440 ,7,1,0.,24.0,0.,24.0,0.,24.0,0.,24.0
1979-03-11 01:38:05.440 ,7,1,0.,24.0,0.,24.0,0.,24.0,0.,24.0
1979-03-11 01:38:29.440 ,6,1,0.,24.0,0.,24.0,0.,24.0,0.,24.0
1979-03-11 01:38:53.440 ,5,1,0.,24.0,0.,24.0,0.,24.0,0.,24.0
1979-03-11 01:39:17.440 ,4,1,0.,24.0,0.,24.0,0.,24.0,0.,24.0
1979-03-11 01:39:41.440 ,3,1,0.,24.0,0.,24.0,0.,24.0,0.,24.0
1979-03-11 01:40:05.440 ,2,1,0.,24.0,0.,24.0,0.,24.0,0.,24.0
1979-03-11 01:40:29.440 ,1,1,0.,24.0,0.,24.0,0.,24.0,0.,24.0
1979-03-11 01:40:53.440 ,0,1,0.,24.0,0.,24.0,0.,24.0,0.,24.0
1979-03-11 01:41:17.440 ,0,1,0.,24.0,0.,24.0,0.,24.0,0.,24.0
1979-03-11 01:41:41.440 ,1,1,0.,24.0,0.,24.0,0.,24.0,0.,24.0
1979-03-11 01:42:05.440 ,2,1,0.,24.0,0.,24.0,0.,24.0,0.,24.0
1979-03-11 01:42:29.440 ,3,1,0.,24.0,0.,24.0,0.,24.0,0.,24.0
1979-03-11 01:42:53.440 ,4,1,0.,24.0,0.,24.0,0.,24.0,0.,24.0
1979-03-11 01:43:17.440 ,5,1,0.,24.0,0.,24.0,0.,24.0,0.,24.0
1979-03-11 01:43:41.440 ,6,1,0.,24.0,0.,24.0,0.,24.0,0.,24.0
1979-03-11 01:44:05.440 ,7,1,0.,24.0,0.,24.0,0.,24.0,0.,24.0
1979-03-11 01:44:29.440 ,7,1,0.,24.0,0.,24.0,0.,24.0,0.,24.0
1979-03-11 01:44:53.440 ,6,1,0.,24.0,0.,24.0,0.,24.0,0.,24.0
1979-03-11 01:45:17.440 ,5,1,0.,24.0,0.,24.0,0.,24.0,0.,24.0
1979-03-11 01:45:41.440 ,4,1,0.,24.0,0.,24.0,0.,24.0,0.,24.0
1979-03-11 01:46:05.440 ,3,1,0.,24.0,0.,24.0,0.,24.0,0.,24.0
1979-03-11 01:46:29.440 ,2,1,0.,24.0,0.,24.0,0.,24.0,0.,24.0
1979-03-11 01:46:53.440 ,1,1,0.,24.0,0.,24.0,0.,24.0,0.,24.0
1979-03-11 01:47:17.440 ,0,1,0.,24.0,0.,24.0,0.,24.0,0.,24.0
1979-03-11 01:47:41.440 ,0,1,0.,24.0,0.,24.0,0.,24.0,0.,24.0
1979-03-11 01:48:05.440 ,1,1,0.,24.0,0.,24.0,0.,24.0,0.,24.0
1979-03-11 01:48:29.440 ,2,1,0.,24.0,0.,24.0,0.,24.0,0.,24.0
1979-03-11 01:48:53.440 ,3,1,0.,24.0,0.,24.0,0.,24.0,0.,24.0
1979-03-11 01:49:17.440 ,4,1,0.,24.0,0.,24.0,0.,24.0,0.,24.0
1979-03-11 01:49:41.440 ,5,1,0.,24.0,0.,24.0,0.,24.0,0.,24.0
1979-03-11 01:50:05.440 ,6,1,0.,24.0,0.,24.0,0.,24.0,0.,24.0
1979-03-11 01:50:29.440 ,7,1,0.,24.0,0.,24.0,0.,24.0,0.,24.0
1979-03-11 01:50:53.440 ,7,1,0.,24.0,0.,24.0,0.,24.0,0.,24.0
1979-03-11 01:51:17.440 ,6,1,0.,24.0,0.,24.0,0.,24.0,0.,24.0
1979-03-11 01:51:41.440 ,5,1,0.,24.0,0.,24.0,0.,24.0,0.,24.0
1979-03-11 01:52:05.440 ,4,1,0.,24.0,0.,24.0,0.,24.0,0.,24.0
1979-03-11 01:52:29.440 ,3,1,0.,24.0,0.,24.0,0.,24.0,0.,24.0
1979-03-11 01:52:53.440 ,2,1,0.,24.0,0.,24.0,0.,24.0,0.,24.0
1979-03-11 01:53:17.440 ,1,1,0.,24.0,0.,24.0,0.,24.0,0.,24.0
1979-03-11 01:53:41.440 ,0,1,0.,24.0,0.,24.0,0.,24.0,0.,24.0
1979-03-11 01:54:05.440 ,0,1,0.,24.0,0.,24.0,0.,24.0,0.,24.0
1979-03-11 01:54:29.440 ,1,1,0.,24.0,0.,24.0,0.,24.0,0.,24.0
1979-03-11 01:54:53.440 ,2,1,0.,24.0,0.,24.0,0.,24.0,0.,24.0
1979-03-11 01:55:17.440 ,3,1,0.,24.0,0.,24.0,0.,24.0,0.,24.0
1979-03-11 01:55:41.440 ,4,1,0.,24.0,0.,24.0,0.,24.0,0.,24.0
1979-03-11 01:56:05.440 ,5,1,0.,24.0,0.,24.0,0.,24.0,0.,24.0
1979-03-11 01:56:29.440 ,6,1,0.,24.0,0.,24.0,0.,24.0,0.,24.0
1979-03-11 01:56:53.440 ,7,1,0.,24.0,0.,24.0,0.,24.0,0.,24.0
1979-03-11 01:57:17.440 ,7,1,0.,24.0,0.,24.0,0.,24.0,0.,24.0
1979-03-11 01:57:41.440 ,6,1,0.,24.0,0.,24.0,0.,24.0,0.,24.0
1979-03-11 01:58:05.440 ,5,1,0.,24.0,0.,24.0,0.,24.0,0.,24.0
1979-03-11 01:58:29.440 ,4,1,0.,24.0,0.,24.0,0.,24.0,0.,24.0
1979-03-11 01:58:53.440 ,3,1,0.,24.0,0.,24.0,0.,24.0,0.,24.0
1979-03-11 01:59:17.440 ,2,1,0.,24.0,0.,24.0,0.,24.0,0.,24.0
1979-03-11 01:59:41.440 ,1,1,0.,24.0,0.,24.0,0.,24.0,0.,24.0
1979-03-11 02:00:05.440 ,0,1,0.,24.0,0.,24.0,0.,24.0,0.,24.0
1979-03-11 02:00:29.440 ,0,1,0.,24.0,0.,24.0,0.,24.0,0.,24.0
1979-03-11 02:00:53.440 ,1,1,0.,24.0,0.,24.0,0.,24.0,0.,24.0
1979-03-11 02:01:17.440 ,2,1,0.,24.0,0.,24.0,0.,24.0,0.,24.0
1979-03-11 02:01:41.440 ,3,1,0.,24.0,0.,24.0,0.,24.0,0.,24.0
1979-03-11 02:02:05.440 ,4,1,0.,24.0,0.,24.0,0.,24.0,0.,24.0
1979-03-11 02:02:29.440 ,5,1,0.,24.0,0.,24.0,0.,24.0,0.,24.0
1979-03-11 02:02:53.440 ,6,1,0.,24.0,0.,24.0,0.,24.0,0.,24.0
1979-03-11 02:03:17.440 ,7,1,0.,24.0,0.,24.0,0.,24.0,0.,24.0
1979-03-11 02:03:41.440 ,7,1,0.,24.0,0.,24.0,0.,24.0,0.,24.0
1979-03-11 02:04:05.440 ,6,1,0.,24.0,0.,24.0,0.,24.0,0.,24.0
1979-03-11 02:04:29.440 ,5,1,0.,24.0,0.,24.0,0.,24.0,0.,24.0
1979-03-11 02:04:53.440 ,4,1,0.,24.0,0.,24.0,0.,24.0,0.,24.0
1979-03-11 02:05:17.440 ,3,1,0.,24.0,0.,24.0,0.,24.0,0.,24.0
1979-03-11 02:05:41.440 ,2,1,0.,24.0,0.,24.0,0.,24.0,0.,24.0
1979-03-11 02:06:05.440 ,1,1,0.,24.0,0.,24.0,0.,24.0,0.,24.0
1979-03-11 02:06:29.440 ,0,1,0.,24.0,0.,24.0,0.,24.0,0.,24.0
1979-03-11 02:06:53.440 ,0,1,0.,24.0,0.,24.0,0.,24.0,0.,24.0
1979-03-11 02:07:17.440 ,1,1,0.,24.0,0.,24.0,0.,24.0,0.,24.0
1979-03-11 02:07:41.440 ,2,1,0.,24.0,0.,24.0,0.,24.0,0.,24.0
1979-03-11 02:08:05.440 ,3,1,0.,24.0,0.,24.0,0.,24.0,0.,24.0
1979-03-11 02:08:29.440 ,4,1,0.,24.0,0.,24.0,0.,24.0,0.,24.0
1979-03-11 02:08:53.440 ,5,1,0.,24.0,0.,24.0,0.,24.0,0.,24.0
1979-03-11 02:09:17.440 ,6,1,0.,24.0,0.,24.0,0.,24.0,0.,24.0
1979-03-11 02:09:41.440 ,7,1,0.,24.0,0.,24.0,0.,24.0,0.,24.0
1979-03-11 02:10:05.440 ,7,1,0.,24.0,0.,24.0,0.,24.0,0.,24.0
1979-03-11 02:10:29.440 ,6,1,0.,24.0,0.,24.0,0.,24.0,0.,24.0
1979-03-11 02:10:53.440 ,5,1,0.,24.0,0.,24.0,0.,24.0,0.,24.0
1979-03-11 02:11:17.440 ,4,1,0.,24.0,0.,24.0,0.,24.0,0.,24.0
1979-03-11 02:11:41.440 ,3,1,0.,24.0,0.,24.0,0.,24.0,0.,24.0
1979-03-11 02:12:05.440 ,2,1,0.,24.0,0.,24.0,0.,24.0,0.,24.0
1979-03-11 02:12:29.440 ,1,1,0.,24.0,0.,24.0,0.,24.0,0.,24.0
1979-03-11 02:12:53.440 ,0,1,0.,24.0,0.,24.0,0.,24.0,0.,24.0
1979-03-11 02:13:17.440 ,0,1,0.,24.0,0.,24.0,0.,24.0,0.,24.0
1979-03-11 02:13:41.440 ,1,1,0.,24.0,0.,24.0,0.,24.0,0.,24.0
1979-03-11 02:14:05.440 ,2,1,0.,24.0,0.,24.0,0.,24.0,0.,24.0
1979-03-11 02:14:29.440 ,3,1,0.,24.0,0.,24.0,0.,24.0,0.,24.0
1979-03-11 02:14:53.440 ,4,1,0.,24.0,0.,24.0,0.,24.0,0.,24.0
1979-03-11 02:15:17.440 ,5,1,0.,24.0,0.,24.0,0.,24.0,0.,24.0
1979-03-11 02:15:41.440 ,6,1,0.,24.0,0.,24.0,0.,24.0,0.,24.0
1979-03-11 02:16:05.440 ,7,1,0.,24.0,0.,24.0,0.,24.0,0.,24.0
1979-03-11 02:16:29.440 ,7,1,0.,24.0,0.,24.0,0.,24.0,0.,24.0
1979-03-11 02:16:53.440 ,6,1,0.,24.0,0.,24.0,0.,24.0,0.,24.0
1979-03-11 02:17:17.440 ,5,1,0.,24.0,0.,24.0,0.,24.0,0.,24.0
1979-03-11 02:17:41.440 ,4,1,0.,24.0,0.,24.0,0.,24.0,0.,24.0
1979-03-11 02:18:05.440 ,3,1,0.,24.0,0.,24.0,0.,24.0,0.,24.0
1979-03-11 02:18:29.440 ,2,1,0.,24.0,0.,24.0,0.,24.0,0.,24.0
1979-03-11 02:18:53.440 ,1,1,0.,24.0,0.,24.0,0.,24.0,0.,24.0
1979-03-11 02:19:17.440 ,0,1,0.,24.0,0.,24.0,0.,24.0,0.,24.0
1979-03-11 02:19:41.440 ,0,1,0.,24.0,0.,24.0,0.,24.0,0.,24.0
1979-03-11 02:20:05.440 ,1,1,0.,24.0,0.,24.0,0.,24.0,0.,24.0
1979-03-11 02:20:29.440 ,2,1,0.,24.0,0.,24.0,0.,24.0,0.,24.0
1979-03-11 02:20:53.440 ,3,1,0.,24.0,0.,24.0,0.,24.0,0.,24.0
1979-03-11 02:21:17.440 ,4,1,0.,24.0,0.,24.0,0.,24.0,0.,24.0
1979-03-11 02:21:41.440 ,5,1,0.,24.0,0.,24.0,0.,24.0,0.,24.0
1979-03-11 02:22:05.440 ,6,1,0.,24.0,0.,24.0,0.,24.0,0.,24.0
1979-03-11 02:22:29.440 ,7,1,0.,24.0,0.,24.0,0.,24.0,0.,24.0
1979-03-11 02:22:53.440 ,7,1,0.,24.0,0.,24.0,0.,24.0,0.,24.0
1979-03-11 02:23:17.440 ,6,1,0.,24.0,0.,24.0,0.,24.0,0.,24.0
1979-03-11 02:23:41.440 ,5,1,0.,24.0,0.,24.0,0.,24.0,0.,24.0
1979-03-11 02:24:05.440 ,4,1,0.,24.0,0.,24.0,0.,24.0,0.,24.0
1979-03-11 02:24:29.440 ,3,1,0.,24.0,0.,24.0,0.,24.0,0.,24.0
1979-03-11 02:24:53.440 ,2,1,0.,24.0,0.,24.0,0.,24.0,0.,24.0
1979-03-11 02:25:17.440 ,1,1,0.,24.0,0.,24.0,0.,24.0,0.,24.0
1979-03-11 02:25:41.440 ,0,1,0.,24.0,0.,24.0,0.,24.0,0.,24.0
1979-03-11 02:26:05.440 ,0,1,0.,24.0,0.,24.0,0.,24.0,0.,24.0
1979-03-11 02:26:29.440 ,1,1,0.,24.0,0.,24.0,0.,24.0,0.,24.0
1979-03-11 02:26:53.440 ,2,1,0.,24.0,0.,24.0,0.,24.0,0.,24.0
1979-03-11 02:27:17.440 ,3,1,0.,24.0,0.,24.0,0.,24.0,0.,24.0
1979-03-11 02:27:41.440 ,4,1,0.,24.0,0.,24.0,0.,24.0,0.,24.0
1979-03-11 02:28:05.440 ,5,1,0.,24.0,0.,24.0,0.,24.0,0.,24.0
1979-03-11 02:28:29.440 ,6,1,0.,24.0,0.,24.0,0.,24.0,0.,24.0
1979-03-11 02:28:53.440 ,7,1,0.,24.0,0.,24.0,0.,24.0,0.,24.0
1979-03-11 02:29:17.440 ,7,1,0.,24.0,0.,24.0,0.,24.0,0.,24.0
1979-03-11 02:29:41.440 ,6,1,0.,24.0,0.,24.0,0.,24.0,0.,24.0
1979-03-11 02:30:05.440 ,5,1,0.,24.0,0.,24.0,0.,24.0,0.,24.0
1979-03-11 02:30:29.440 ,4,1,0.,24.0,0.,24.0,0.,24.0,0.,24.0
1979-03-11 02:30:53.440 ,3,1,0.,24.0,0.,24.0,0.,24.0,0.,24.0
1979-03-11 02:31:17.440 ,2,1,0.,24.0,0.,24.0,0.,24.0,0.,24.0
1979-03-11 02:31:41.440 ,1,1,0.,24.0,0.,24.0,0.,24.0,0.,24.0
1979-03-11 02:32:05.440 ,0,1,0.,24.0,0.,24.0,0.,24.0,0.,24.0
1979-03-11 02:32:29.440 ,0,1,0.,24.0,0.,24.0,0.,24.0,0.,24.0
1979-03-11 02:32:53.440 ,1,1,0.,24.0,0.,24.0,0.,24.0,0.,24.0
1979-03-11 02:33:17.440 ,2,1,0.,24.0,0.,24.0,0.,24.0,0.,24.0
1979-03-11 02:33:41.440 ,3,1,0.,24.0,0.,24.0,0.,24.0,0.,24.0
1979-03-11 02:34:05.440 ,4,1,0.,24.0,0.,24.0,0.,24.0,0.,24.0
1979-03-11 02:34:29.440 ,5,1,0.,24.0,0.,24.0,0.,24.0,0.,24.0